[Iaude] MPEC M126: 2020 MH3 [a=2.54,e=0.60,i=9.0,H=25.0]

mpec at marsden.cfa.harvard.edu mpec at marsden.cfa.harvard.edu
Sat Jun 27 21:17:30 EDT 2020


M.P.E.C. 2020-M126                                Issued 2020 June 28, 01:16 UT

     The Minor Planet Electronic Circulars contain information on unusual
         minor planets and routine data on comets.  They are published
    on behalf of Division F of the International Astronomical Union by the
          Minor Planet Center, Smithsonian Astrophysical Observatory,
                          Cambridge, MA 02138, U.S.A.

             Prepared using the Tamkin Foundation Computer Network

                              MPC at CFA.HARVARD.EDU
            URL https://www.minorplanetcenter.net/    ISSN 1523-6714

                                    2020 MH3                                    


Observations:
     K20M03H* C2020 06 26.56225621 07 01.495-13 43 09.89         19.81wUEM126F51
     K20M03H  C2020 06 26.57080021 07 01.135-13 41 14.22         20.45wUEM126F51
     K20M03H  C2020 06 26.57869621 07 00.813-13 39 28.26         20.06wUEM126F51
     K20M03H  C2020 06 26.87622 21 07 11.30 -12 35 37.5          20.1 GVEM126N88
     K20M03H  C2020 06 26.87709 21 07 11.21 -12 35 27.1          20.6 GVEM126N88
     K20M03H  C2020 06 26.87787 21 07 11.20 -12 35 16.3          19.7 GVEM126N88
     K20M03H IC2020 06 26.87914 21 07 11.12 -12 34 59.6          19.3 GVEM126N88
     K20M03H IC2020 06 27.04932921 07 17.37 -11 59 42.8          20.1 GVEM126L01
     K20M03H KC2020 06 27.05153221 07 17.35 -11 59 15.6          20.1 GVEM126L01
     K20M03H KC2020 06 27.05461221 07 17.26 -11 58 38.2          20.0 GVEM126L01
     K20M03H KC2020 06 27.05747321 07 17.17 -11 58 03.1          20.1 GVEM126L01
     K20M03H pC2020 06 27.06509121 07 16.97 -11 56 29.8          20.2 GVEM126L01
     K20M03H ^C2020 06 27.59965721 07 24.981-10 11 56.43         20.16GVEM126568
     K20M03H ^C2020 06 27.60060521 07 24.946-10 11 45.97         19.97GVEM126568
     K20M03H KC2020 06 28.01886421 07 40.37 -08 58 20.3          19.4 GUEM126I93
     K20M03H KC2020 06 28.02894021 07 40.15 -08 56 37.5          19.9 GUEM126I93

Observer details:
568 Mauna Kea.  Observers R. Wainscoat, L. Wells, S. Prunet.  Measurers R.
    Weryk, R. Wainscoat.  3.6-m Canada-France-Hawaii Telescope + CCD.
F51 Pan-STARRS 1, Haleakala.  Observers J. Bulger, T. Lowe, A. Schultz, M.
    Willman.  Measurers K. Chambers, S. Chastel, T. de Boer, L. Denneau, J.
    Fairlamb, H. Flewelling, M. Huber, C.-C. Lin, E. Magnier, Y. Ramanjooloo,
    R. Wainscoat, R. Weryk.  1.8-m Ritchey-Chretien + CCD.
I93 St Pardon de Conques.  Observer F. Losse.  0.40-m f/3.7 reflector + CCD.
L01 Visnjan Observatory, Tican.  Observer K. Korlevic.  1.0-m f/2.9 reflector
    + CCD.
N88 Xingming Observatory #3, Nanshan.  Observer X. Gao.  Measurer Q.-Z. Ye.
    0.6-m f/8 Ritchey-Chretien + CCD.

Orbital elements:
2020 MH3                                                 Earth MOID = 0.0265 AU
Epoch 2020 May 31.0 TT = JDT 2459000.5                  Veres
M 358.76326              (2000.0)            P               Q
n   0.24353011     Peri.  335.29803     -0.31483642     +0.93644049
a   2.5396134      Node   276.04503     -0.84290393     -0.35082063
e   0.5998819      Incl.    8.95431     -0.43633816     +0.00202255
P   4.05           H   25.0           G   0.15           U   7
Residuals in seconds of arc
200626 F51  0.1+  0.3-    200626 N88  0.9-  1.3+    200627 568  0.2-  0.1-
200626 F51  0.0   0.3+    200627 L01  0.1-  0.4-    200627 568  0.2-  0.2-
200626 F51  0.0   0.1-    200627 L01  0.4+  0.1-    200628 I93  0.0   0.0
200626 N88  0.5+  0.4+    200627 L01  0.3+  0.4-    200628 I93  0.3+  0.2+
200626 N88  0.4-  0.2-    200627 L01  0.1+  0.3-
200626 N88  0.3-  0.7+    200627 L01  0.1+  0.1-

Ephemeris:
2020 MH3                 a,e,i = 2.54, 0.60, 9                   q = 1.0161
Date    TT    R. A. (2000) Decl.     Delta      r    Elong.  Phase     V
2020 05 29    09 21 55.0 -33 42 25   0.1212  1.0204    89.8    83.4    23.4
...
2020 06 13    09 32 37.3 -58 24 46   0.04572 1.0215    96.2    81.3    21.2
...
2020 06 21    20 56 31.9 -51 21 14   0.02925 1.0376   136.1    42.8    19.1
...
2020 06 27    21 07 14.7 -12 07 36   0.05120 1.0562   139.7    38.5    20.2
2020 06 28    21 07 35.8 -08 59 40   0.05608 1.0598   139.3    38.7    20.4
2020 06 29    21 07 49.1 -06 22 45   0.06112 1.0635   139.0    38.8    20.6
...
2020 07 05    21 07 31.3 +02 55 42   0.09321 1.0889   139.1    37.7    21.5
...
2020 07 13    21 04 55.1 +07 50 44   0.1387  1.1294   142.3    33.4    22.4
...
2020 07 28    20 58 01.6 +09 48 10   0.2315  1.2221   150.4    24.2    23.4

M. P. C. Staff               (C) Copyright 2020 MPC           M.P.E.C. 2020-M126




More information about the Iaude mailing list